Regional Weather Roundup
Issued by NWS

Home | Current Version | Previous Version | Text Only | Print | Product List | Glossary On
Versions: 1 2 3 4 5 6 7 8 9 10 11 12 13 14 15 16 17 18 19 20 21 22 23 24 25 26 27 28 29 30 31 32 33 34 35 36 37 38 39 40 41 42 43 44 45 46 47 48 49 50
000
ASUS45 KABQ 222010
RWRNM
WEATHER ROUNDUP FOR NEW MEXICO
NATIONAL WEATHER SERVICE ALBUQUERQUE NM
200 PM MDT TUE JUL 22 2014

NOTE: "FAIR" MEANS FEW OR NO CLOUDS BELOW 12,000 FEET AGL WITH NO
       SIGNIFICANT WEATHER OR OBSTRUCTIONS TO VISION.

      THIS PRODUCT IS RELEASED AS TWO VERSIONS.  ONE VERSION NEAR
      THE TOP OF THE HOUR CONTAINING PRELIMINARY DATA FROM ALBUQUERQUE
      AND OTHER STATIONS.  A FINAL VERSION WITH ADDITIONAL DATA IS
      ISSUED ABOUT 10 MINUTES AFTER THE HOUR.

NMZ501-503-504-510>518-222100-
NORTHWEST PLATEAU/NORTHCENTRAL MOUNTAINS

CITY           SKY/WX    TMP DP  RH WIND       PRES   REMARKS
FARMINGTON     SUNNY     95  25   8 SW7       30.26F
LOS ALAMOS     PTSUNNY   82  42  24 E8        30.43R
SANTA FE       MOSUNNY   90  40  17 E20G28    30.33F
TAOS           SUNNY     88  43  20 N12       30.40F
ANGEL FIRE     MOCLDY    78  44  29 E12       30.54S

$$
NMZ402-403-502-505>509-222100-
WESTCENTRAL MOUNTAINS/SOUTHWEST MOUNTAINS

CITY           SKY/WX    TMP DP  RH WIND       PRES   REMARKS
GALLUP         FAIR      86  31  13 VRB3      30.37F
GRANTS         FAIR      89  33  13 NE12G17   30.37S
SILVER CITY    FAIR      93  45  18 SE12G18   30.25F

$$
NMZ407-409-411-412-222100-
SOUTHERN DESERTS

CITY           SKY/WX    TMP DP  RH WIND       PRES   REMARKS
LORDSBURG      FAIR      97  46  17 CALM      30.14F
DEMING         FAIR      97  47  18 VRB3      30.14F
LAS CRUCES     FAIR      97  46  17 CALM      30.16F
HOLLOMAN AFB   PTSUNNY   94  55  26 E15G24    30.13F
ALAMOGORDO     LGT RAIN  79  61  53 E9        30.17S
T OR C         FAIR      97  44  16 VRB7      30.17F

$$
NMZ519>523-222100-
CENTRAL VALLEYS/CENTRAL HIGHLANDS

CITY           SKY/WX    TMP DP  RH WIND       PRES   REMARKS
ALBUQUERQUE    MOSUNNY   92  47  21 CALM      30.25F
DOUBLE EAGLE   MOSUNNY   88  46  23 CALM      30.30F
MORIARTY ARPT  FAIR      92  40  16 N6        30.31F
CLINES CORNERS LGT RAIN  76  50  40 NE3       30.40R
BELEN          FAIR      94  50  22 NE12      30.23F
SOCORRO        FAIR      98  40  13 E7        30.18F

$$
NMZ524>526-539-540-222100-
SOUTHCENTRAL MOUNTAINS

CITY           SKY/WX    TMP DP  RH WIND       PRES   REMARKS
RUIDOSO        PTSUNNY   73  50  43 MISG      30.41R

$$
NMZ527>531-222100-
NORTHEAST HIGHLANDS/NORTHEAST PLAINS

CITY           SKY/WX    TMP DP  RH WIND       PRES   REMARKS
LAS VEGAS      MOSUNNY   85  46  25 E13       30.41S
RATON          SUNNY     93  41  16 NE12G22   30.34F
CLAYTON        SUNNY     92  53  26 E12G18    30.25F

$$
NMZ532>537-222100-
EASTCENTRAL PLAINS

CITY           SKY/WX    TMP DP  RH WIND       PRES   REMARKS
TUCUMCARI      SUNNY     93  62  35 SE8       30.18F
CANNON AFB     MOSUNNY   86  65  48 SE9       30.24F
CLOVIS AIRPORT NOT AVBL

$$
NMZ028-029-538-222100-
SOUTHEAST PLAINS

CITY           SKY/WX    TMP DP  RH WIND       PRES   REMARKS
ROSWELL        SUNNY     95  61  32 SE17G24   30.14F HX  95
ARTESIA        SUNNY     93  63  36 SE15      30.14S
CARLSBAD       SUNNY     97  55  24 SE10G24   30.11F HX  95
HOBBS          MOSUNNY   93  54  26 E12G21    30.18F


$$


USA.gov is the U.S. government's official web portal to all federal, state and local government web resources and services.